Regional Weather Roundup
Issued by NWS

Home | Current Version | Previous Version | Graphics & Text | Print | Product List | Glossary On
Versions: 1 2 3 4 5 6 7 8 9 10 11 12 13 14 15 16 17 18 19 20 21 22 23 24 25 26 27 28 29 30 31 32 33 34 35 36 37 38 39 40 41 42 43 44 45 46 47 48 49 50
000
ASUS45 KBOU 200907
RWRCO

WEATHER ROUNDUP FOR COLORADO
NATIONAL WEATHER SERVICE DENVER/BOULDER CO
200 AM MST SAT DEC 20 2014

NOTE: "FAIR" INDICATES FEW OR NO CLOUDS BELOW 12000 FEET WITH NO
SIGNIFICANT WEATHER AND/OR OBSTRUCTIONS TO VISIBILITY.

COZ001>005-013-030-031-201000-
...NORTHWEST COLORADO...

CITY           SKY/WX    TMP DP  RH WIND       PRES   REMARKS
CRAIG          NOT AVBL
HAYDEN         CLOUDY    19  14  79 S3        30.17R
MEEKER         CLOUDY    20  15  81 CALM      30.18R
MOUNT WERNER   NOT AVBL
STEAMBOAT SPGS CLOUDY    16  14  90 E3        30.16R
WALDEN         PTCLDY    16  10  79 SE5       30.09S WCI   9
$$

COZ006>008-011-201000-
...WEST CENTRAL VALLEYS...

CITY           SKY/WX    TMP DP  RH WIND       PRES   REMARKS
GRAND JUNCTION MOCLDY    28  25  88 E8        30.21S WCI  20
MONTROSE       PTCLDY    25  17  72 SE9       30.24S WCI  15
EAGLE          CLOUDY    18  16  93 E5        30.23S WCI  11
RIFLE          CLOUDY    26  21  81 SW3       30.22R
DELTA          PTCLDY    27  21  80 CALM      30.24S
NUCLA          PTCLDY    27  21  80 E7        30.23F WCI  19
$$

COZ017>023-064>068-201000-
...SOUTHWEST COLORADO...

CITY           SKY/WX    TMP DP  RH WIND       PRES   REMARKS
DURANGO        PTCLDY    21  19  92 CALM      30.18S
CORTEZ         CLEAR     23  19  85 NE8       30.19F WCI  14
PAGOSA SPRINGS PTCLDY    14  13  95 CALM      30.17S
TELLURIDE      PTCLDY    17  11  80 CALM      30.20R
WOLF CREEK PAS CLEAR     18   1  49 MISG      30.14R
$$

COZ009-010-012-014-032>034-037-058>063-201000-
...CENTRAL COLORADO...

CITY           SKY/WX    TMP DP  RH WIND       PRES   REMARKS
ASPEN          CLOUDY    15   9  76 S5        30.17S WCI   8
BUENA VISTA    PTCLDY    10   4  80 SW6       30.13R WCI   0
COPPER MTN     CLOUDY    19  12  73 W14G21    30.12S WCI   6
BERTHOUD PASS  FAIR       9   3  78 MISG      30.05S
COTTONWOOD PAS PTCLDY    27   9  46 NW10G17   30.10R WCI  17
GUNNISON       CLEAR      7   1  78 CALM      30.25R
KREMMLING      CLOUDY    12   9  85 CALM      30.19F
LEADVILLE      CLOUDY     9   4  80 NE8       30.11S WCI  -3
MONARCH PASS   MOCLDY    10   9  92 MISG      30.21R
SALIDA         PTCLDY    24  10  55 NW8       30.21R WCI  15
SUNLIGHT       MOCLDY   N/A N/A N/A CALM      30.15S
WILKERSON PASS PTCLDY    19  10  68 NW9       30.10R WCI   9
$$

COZ069>075-201000-
...SAN LUIS VALLEY/SANGRE DE CRISTO MOUNTAINS...

CITY           SKY/WX    TMP DP  RH WIND       PRES   REMARKS
ALAMOSA        MOCLDY     6   2  83 CALM      30.16R
LA VETA PASS   PTCLDY    16  10  79 MISG      30.08F
SAGUACHE       CLEAR     21  10  63 NW15      30.16R WCI   8
$$

COZ035-036-038>040-201000-
...NORTHERN COLORADO FRONT RANGE...

CITY           SKY/WX    TMP DP  RH WIND       PRES   REMARKS
DENVER INTL AP CLEAR     27  15  61 SW12      29.99S WCI  17
DMNS CITY PARK   N/A     31  15  53 SW6       30.00S WCI  25
AURORA         PTCLDY    30  15  53 S12       30.00S WCI  21
FRONT RANGE AP CLEAR     28  21  74 S8        30.00S WCI  20
ERIE MUNI ARPT   N/A     26  16  67 CALM      29.99S
BOULDER MUN AP CLEAR     32  18  55 SW5       29.99S WCI  27
CENTENNIAL     PTCLDY    25  16  68 S6        30.00S WCI  18
BROOMFIELD     CLEAR     30  18  59 W5        30.00R WCI  25
FORT COLLINS   PTCLDY    25  16  68 CALM      30.00F
LONGMONT       PTCLDY    22  17  78 E3        30.02R
$$

COZ041-046-047-076>085-087-088-201000-
...PIKES PEAK/PALMER DIVIDE AND SOUTHERN FOOTHILLS...

CITY           SKY/WX    TMP DP  RH WIND       PRES   REMARKS
COLO. SPRINGS  PTCLDY    22  16  78 N9        30.03S WCI  12
A. F. ACADEMY  CLEAR     18  13  82 N10       30.02S WCI   6
ELLICOTT       NOT AVBL
FALCON         CLEAR     23  16  75 W6        30.03S WCI  15
FORT CARSON    PTCLDY    24  16  71 N5        30.01F WCI  18
LIMON          PTCLDY    16  14  92 N6        30.03R WCI   7
MONUMENT HILL  CLEAR     25  14  63 SW8       30.01R WCI  16
TRINIDAD       PTCLDY    29  16  58 SW16      30.04S WCI  17
$$

COZ042>045-048>051-090-091-201000-
...NORTHEAST COLORADO...

CITY           SKY/WX    TMP DP  RH WIND       PRES   REMARKS
GREELEY ARPT   PTCLDY    16   7  67 NW3       30.00S
AKRON          PTCLDY    28  22  78 SW12      29.99S WCI  18
BURLINGTON     PTCLDY    31  26  82 SW9       30.03R WCI  23
WRAY           NOT AVBL
STERLING       PTCLDY    12  10  92 S6        30.01R WCI   3
HOLYOKE        CLEAR     19  16  86 W7        30.01S WCI  10
FORT MORGAN    PTCLDY    17  14  90 W10       30.01R WCI   4
$$

COZ086-089-092>099-201000-
...SOUTHEAST COLORADO...

CITY           SKY/WX    TMP DP  RH WIND       PRES   REMARKS
PUEBLO         PTCLDY    21  17  84 CALM      30.03S
LA JUNTA       MOCLDY    28  23  81 SW5       30.04R WCI  23
LAMAR          MOCLDY    25  22  88 CALM      30.02F
SPRINGFIELD      N/A     30  25  81 SW7       30.02F WCI  23
$$


USA.gov is the U.S. government's official web portal to all federal, state and local government web resources and services.